カタログに戻る

STARLINK-33579

運用中通信VLEO
NORAD 62764·PAYLOAD·🇺🇸 United States

打ち上げ Jan 21, 2025 から Vandenberg Space Force Base

Loading…

次のパス (今後24時間)

TLE

最新Source: CelesTrak SupGP

元期: Sep 15, 2026, 02:51 UTC

1 62764C 25015G   26258.11923611 -.00014604  00000+0 -46973-3 0  2581
2 62764  53.1569 160.8216 0001291  83.6287  89.4846 15.31703277    13

AllMySatでSTARLINK-33579をリアルタイム追跡

Download on the App Store